Home > Weather > Chilliwack > Past weeks

Flag for Canada Past Weather in Chilliwack, British Columbia, Canada — Yesterday and Last 2 Weeks

Now
74 °F

Mild.


Feels Like: 77 °F
Forecast: 64 / 85 °F
Wind: 3 mph from Southwest

Location: Agassiz

Current Time: Jul 29, 2016 at 11:02:41 AM

Latest Report: Jul 29, 2016 at 10:00 AM


Visibility: N/A

Pressure: 29.98 "Hg

Humidity: 62%

Dew Point: 60 °F

Location of ChilliwackLocation

Past Weather in Chilliwack — Graph

°F

Chilliwack Temperature Yesterday

Maximum temperature yesterday: 86 °F (at 4:00 PM)
Minimum temperature yesterday: 57 °F (at 5:00 AM)
Average temperature yesterday: 72 °F

High & Low Weather Summary for the Past Weeks

 TemperatureHumidityPressure
High86 °F (Jul 28, 4:00 PM)100% (Jul 29, 3:00 AM)30.24 "Hg (Jul 29, 3:00 AM)
Low51 °F (Jul 15, 4:00 AM)30% (Jul 21, 7:00 PM)29.90 "Hg (Jul 17, 6:00 PM)
Average67 °F74%30.07 "Hg
* Reported Jul 14 10:00 AM — Jul 29 10:00 AM, Chilliwack, Weather by CustomWeather, © 2016

Note: Actual official high and low records may vary slightly from our data, if they occured in-between our weather recording intervals... More about our weather records

Advertising

Chilliwack Weather History for the Previous 24 Hours

Scroll right to see more
 ConditionsComfort  
Time TempWeatherWind HumidityBarometerVisibility
10:00 AM
Fri, Jul 29
74 °FMild.3 mph62%29.98 "HgN/A
9:00 AM70 °FMild.2 mph80%29.99 "HgN/A
8:00 AM66 °FMild.2 mph88%30.00 "HgN/A
7:00 AM61 °FCool.2 mph95%30.00 "HgN/A
6:00 AM59 °FCool.1 mph90%30.00 "HgN/A
5:00 AM61 °FCool.1 mph96%30.01 "HgN/A
4:00 AM60 °FCool.1 mph95%30.01 "HgN/A
3:00 AM60 °FCool.No wind100%30.01 "HgN/A
2:00 AM62 °FCool.1 mph93%30.02 "HgN/A
1:00 AM63 °FMild.No wind92%30.02 "HgN/A
12:00 AM66 °FMild.No wind83%30.02 "HgN/A
11:00 PM
Thu, Jul 28
69 °FMild.3 mph77%30.02 "HgN/A
10:00 PM73 °FMild.5 mph69%30.01 "HgN/A
9:00 PM72 °FMild.1 mph78%29.99 "HgN/A
8:00 PM79 °FWarm.1 mph62%29.99 "HgN/A
7:00 PM84 °FWarm.6 mph45%29.99 "HgN/A
6:00 PM86 °FWarm.6 mph44%30.00 "HgN/A
5:00 PM85 °FWarm.7 mph47%30.01 "HgN/A
4:00 PM86 °FWarm.6 mph43%30.03 "HgN/A
3:00 PM85 °FWarm.7 mph45%30.04 "HgN/A
2:00 PM83 °FWarm.5 mph50%30.06 "HgN/A
1:00 PM81 °FWarm.6 mph52%30.07 "HgN/A
12:00 PM78 °FWarm.5 mph58%30.09 "HgN/A
11:00 AM76 °FMild.5 mph63%30.09 "HgN/A
Weather by CustomWeather, © 2016

See weather overviewHow to use our weather pages